Regional Weather Roundup
Issued by NWS

Home | Current Version | Previous Version | Text Only | Print | Product List | Glossary On
Versions: 1 2 3 4 5 6 7 8 9 10 11 12 13 14 15 16 17 18 19 20 21 22 23 24 25 26 27 28 29 30 31 32 33 34 35 36 37 38 39 40 41 42 43 44 45 46 47 48 49 50
000
ASUS45 KBOU 272007
RWRCO

WEATHER ROUNDUP FOR COLORADO
NATIONAL WEATHER SERVICE DENVER/BOULDER CO
200 PM MDT FRI MAR 27 2015

NOTE: "FAIR" INDICATES FEW OR NO CLOUDS BELOW 12000 FEET WITH NO
SIGNIFICANT WEATHER AND/OR OBSTRUCTIONS TO VISIBILITY.

COZ001>005-013-030-031-272100-
...NORTHWEST COLORADO...

CITY           SKY/WX    TMP DP  RH WIND       PRES   REMARKS
CRAIG          SUNNY     63  30  28 W9        30.27F
HAYDEN         MOSUNNY   55  28  35 N5        30.28F
MEEKER         SUNNY     63  29  27 MISG      30.27F
MOUNT WERNER   NOT AVBL
STEAMBOAT SPGS PTSUNNY   53  31  44 CALM      30.30F
WALDEN         SUNNY     54  28  37 W15G21    30.29F
$$

COZ006>008-011-272100-
...WEST CENTRAL VALLEYS...

CITY           SKY/WX    TMP DP  RH WIND       PRES   REMARKS
GRAND JUNCTION SUNNY     67  24  19 W5        30.23F
MONTROSE       SUNNY     65  21  18 N9        30.27F
EAGLE          MOSUNNY   63  27  25 S5        30.27F
RIFLE          SUNNY     64  28  25 VRB3      30.23F
DELTA          SUNNY     68  22  17 W6        30.25F
NUCLA          SUNNY     66  21  18 W5        30.31F
$$

COZ017>023-064>068-272100-
...SOUTHWEST COLORADO...

CITY           SKY/WX    TMP DP  RH WIND       PRES   REMARKS
DURANGO        SUNNY     65  24  21 S13G21    30.26F
CORTEZ         SUNNY     67  23  19 NW14G21   30.27F
PAGOSA SPRINGS SUNNY     64  14  14 SW10G16   30.28F
TELLURIDE      SUNNY     55  19  25 W9G25     30.39F
WOLF CREEK PAS SUNNY     39  12  33 N7G17     30.51F
$$

COZ009-010-012-014-032>034-037-058>063-272100-
...CENTRAL COLORADO...

CITY           SKY/WX    TMP DP  RH WIND       PRES   REMARKS
ASPEN          SUNNY     56  27  32 NW10G18   30.30F
BUENA VISTA    MOSUNNY   63  15  15 W10G22    30.25S
COPPER MTN     MOSUNNY   39  23  52 W8G31     30.44S
BERTHOUD PASS  PTSUNNY   27  19  74 NW37G45   30.39S WCI   9
COTTONWOOD PAS SUNNY     54  14  20 W10G28    30.34F
GUNNISON       SUNNY     57  23  26 SW9       30.32F
KREMMLING      PTSUNNY   55  25  30 NW9       30.30F
LEADVILLE      SUNNY     44  22  41 W14G26    30.34F
SALIDA         MOSUNNY   66  18  16 W17G24    30.30F
SUNLIGHT       SUNNY     45  27  49 CALM      30.47F
WILKERSON PASS MOSUNNY   45  18  33 NW9G20    30.40S
$$

COZ069>075-272100-
...SAN LUIS VALLEY/SANGRE DE CRISTO MOUNTAINS...

CITY           SKY/WX    TMP DP  RH WIND       PRES   REMARKS
ALAMOSA        SUNNY     64  17  16 VRB6      30.24F
LA VETA PASS   SUNNY     50  21  32 S16G23    30.34F
SAGUACHE       SUNNY     63  19  19 NW16G30   30.27F
$$

COZ035-036-038>040-272100-
...NORTHERN COLORADO FRONT RANGE...

CITY           SKY/WX    TMP DP  RH WIND       PRES   REMARKS
DENVER INTL AP MOSUNNY   67  31  26 N6        30.12F
DMNS CITY PARK   N/A     69  29  22 NW15      30.11S
AURORA         NOT AVBL
FRONT RANGE AP NOT AVBL
ERIE MUNI ARPT SUNNY     69  28  21 E3        30.11F
BOULDER MUN AP SUNNY     68  30  24 NE6       30.10F
CENTENNIAL     MOSUNNY   66  29  24 NW16G24   30.13F
BROOMFIELD     PTSUNNY   68  28  22 NW10G18   30.13
FORT COLLINS   SUNNY     66  34  30 SW5       30.11F
LONGMONT       SUNNY     72  31  22 E12       30.12F
$$

COZ041-046-047-076>085-087-088-272100-
...PIKES PEAK/PALMER DIVIDE AND SOUTHERN FOOTHILLS...

CITY           SKY/WX    TMP DP  RH WIND       PRES   REMARKS
COLO. SPRINGS  MOSUNNY   63  24  22 VRB7      30.16F
A. F. ACADEMY  NOT AVBL
ELLICOTT       SUNNY    N/A N/A N/A E5        30.15F
FALCON         SUNNY     63  23  21 CALM      30.19F
FORT CARSON    NOT AVBL
LIMON          SUNNY     64  30  27 N9G23     30.14F
MONUMENT HILL  SUNNY     59  27  29 W8G16     30.19F
TRINIDAD       SUNNY     67  26  21 S10       30.15F
$$

COZ042>045-048>051-090-091-272100-
...NORTHEAST COLORADO...

CITY           SKY/WX    TMP DP  RH WIND       PRES   REMARKS
GREELEY ARPT   MOSUNNY   70  30  23 W17       30.07F
AKRON          CLOUDY    63  33  32 W14       30.07F
BURLINGTON     SUNNY     66  33  29 NW16G24   30.09F
WRAY           PTSUNNY   69  33  26 NW22G30   30.05F
STERLING       SUNNY     70  34  26 N17G25    30.04F
HOLYOKE        SUNNY     68  34  28 N24G32    30.04F
FORT MORGAN    MOSUNNY  N/A N/A N/A NW17G26   30.07F
$$

COZ086-089-092>099-272100-
...SOUTHEAST COLORADO...

CITY           SKY/WX    TMP DP  RH WIND       PRES   REMARKS
PUEBLO         SUNNY     69  28  21 S9        30.09F
LA JUNTA       SUNNY     69  30  23 NE8       30.11F
LAMAR          SUNNY     66  33  29 N7        30.10F
SPRINGFIELD      N/A     67  31  26 NW12G17   30.12F
$$


USA.gov is the U.S. government's official web portal to all federal, state and local government web resources and services.